Location: Santa Maria di Sala
(45.5070°N, 12.0300°E)
Time: 08:50:08
(UTC+02:00)

STRAND 1 - Pass Details

Date: 06 March 2024
Orbit: 764 x 779 km, 98.4° (Epoch: 16 April)

Event Time Altitude Azimuth Distance (km) Brightness Sun altitude
Rises 04:47:26 0° 136° (SE) 3,253 ? -20.6°
Reaches altitude 10° 04:49:57 10° 126° (SE) 2,329 ? -20.1°
Maximum altitude 04:54:25 31° 65° (ENE) 1,338 ? -19.4°
Drops below altitude 10° 04:58:55 10° 5° (N) 2,339 ? -18.6°
Sets 05:01:27 0° 355° (N) 3,269 ? -18.2°
